Location: Krasnoyarskiy Pitomnik
(51.1333°N, 71.6167°E)
Time: 10:00:58
(UTC+00:00)

Altair - Pass Details

Date: 19 April 2024
Orbit: 1502 x 1682 km, 47.2° (Epoch: 23 May)

Event Time Altitude Azimuth Distance (km) Brightness Sun altitude
Rises 15:59:51 0° 249° (WSW) 4,902 10.5 -14.8°
Reaches altitude 10° 16:03:04 10° 247° (WSW) 3,899 9.9 -15.1°
Maximum altitude 16:12:53 67° 168° (SSE) 1,726 7.5 -16.3°
Drops below altitude 10° 16:22:22 10° 89° (E) 3,766 9.2 -17.3°
Enters shadow 16:24:17 - 87° (E) 4,371 9.5 -17.5°
